Погода в Петушках

Россия / Смоленская область     55°51′09″N   35°08′59″E
темп.,
°C
ветер,
м/с
пор.,
м/с
влажн.,
%
обл.,
%
осадки,
мм/ч
давл.,
гПа
погр.,
м
7 мая, пт
пт700:00+4юз4129464 0.0 1008512
03:00+3юз31295100 0.0 1008401
06:00+2юз310935 0.0 1009367
09:00+7зюз496968 0.0 1011793
12:00+9юз696319 0.5 10111386
15:00+11юз695886 1.1 10101797
18:00+10ююз4873100 1.0 10101115
21:00+6ююв2688100 1.1 1010109
8 мая, сб
сб800:00+7ююв41285100 0.1 1009442
03:00+7ююв71592100 2.2 10061173
06:00+7юв61495100 0.9 1004912
09:00+7ююв4995100 1.4 1003630
12:00+9ююз2391100 1.1 1002436
15:00+9зсз469196 2.3 1002577
18:00+6сз51093100 0.4 1004613
21:00+5сз5996100 3.6 1006879
9 мая, вс
вс900:00+4зсз51192100 1.3 1009829
03:00+3з598990 1.7 1011956
06:00+1зсз4119675 0.0 1015565
09:00+4зсз488218 0.0 1018873
12:00+9сз5748100 0.1 10192249
15:00+11сз4738100 0.1 10212642
18:00+11сз36475 0.0 10221998
21:00+5зюз22695 0.0 102514
10 мая, пн
пн1000:00+3зюз22765 0.0 102715
03:00+2юз227612 0.0 102925
06:00+3юз24756 0.0 103093
09:00+10юз355641 0.0 1030490
12:00+14юз454982 0.0 10301333
15:00+15юз344840 0.0 10301323
18:00+15юз23585 0.0 10301065
21:00+9ююз238371 0.0 103039
11 мая, вт
вт1100:00+7ю22795 0.0 103117
03:00+6ю22815 0.0 103215
06:00+7ююз227584 0.0 103239
09:00+13ююв245429 0.0 1032484
12:00+17ююв34435 0.0 10311215
15:00+19юв33425 0.0 10291333
18:00+17юв24559 0.0 1029630
21:00+11юв368067 0.0 102997